Location: B?dargowo
(53.3916°N, 14.4413°E)
Time: 10:42:09
(UTC+00:00)

Cosmos 1980 Rocket - Pass Details

Date: 05 February 2023
Orbit: 828 x 851 km, 71.0° (Epoch: 19 March)

Event Time Altitude Azimuth Distance (km) Brightness Sun altitude
Rises 18:13:50 0° 266° (W) 3,404 6.9 -21.2°
Reaches altitude 10° 18:16:54 10° 282° (WNW) 2,475 5.8 -21.7°
Maximum altitude 18:21:09 21° 331° (NNW) 1,821 4.3 -22.3°
Drops below altitude 10° 18:25:26 10° 20° (NNE) 2,489 4.5 -22.9°
Enters shadow 18:25:51 - 23° (NNE) 2,602 4.6 -23.0°
